Time,TemperatureF,DewpointF,PressureIn,WindDirection,WindDirectionDegrees,WindSpeedMPH,WindSpeedGustMPH,Humidity,HourlyPrecipIn,Conditions,Clouds,dailyrainin,SoftwareType,DateUTC
2013-03-16 00:02:00,11.2,0.6,29.81,ESE,113,0.0,0.0,62,0.00,,,0.00,WUHU216HW,2013-03-16 08:02:00,
2013-03-16 00:07:00,11.0,0.5,29.81,ESE,113,0.0,0.0,62,0.00,,,0.00,WUHU216HW,2013-03-16 08:07:00,
2013-03-16 00:12:00,10.8,0.3,29.81,ESE,113,0.0,0.4,62,0.00,,,0.00,WUHU216HW,2013-03-16 08:12:00,
2013-03-16 00:17:00,10.4,-0.1,29.81,East,90,0.4,1.1,62,0.00,,,0.00,WUHU216HW,2013-03-16 08:17:00,
2013-03-16 00:22:00,10.4,0.3,29.81,East,90,0.0,1.1,63,0.00,,,0.00,WUHU216HW,2013-03-16 08:22:00,
2013-03-16 00:27:00,10.3,0.1,29.81,East,90,0.0,0.4,63,0.00,,,0.00,WUHU216HW,2013-03-16 08:27:00,
2013-03-16 00:32:00,10.1,-0.1,29.82,NE,45,0.9,1.1,63,0.00,,,0.00,WUHU216HW,2013-03-16 08:32:00,
2013-03-16 00:37:00,9.7,-0.4,29.82,NNW,338,0.4,1.1,63,0.00,,,0.00,WUHU216HW,2013-03-16 08:37:00,
2013-03-16 00:42:00,9.7,-0.1,29.82,SSE,158,1.1,1.1,64,0.00,,,0.00,WUHU216HW,2013-03-16 08:42:00,
2013-03-16 00:47:00,9.5,-0.3,29.82,SSE,158,0.4,1.1,64,0.00,,,0.00,WUHU216HW,2013-03-16 08:47:00,
2013-03-16 00:52:00,9.4,-0.4,29.83,SSW,203,0.0,1.1,64,0.00,,,0.00,WUHU216HW,2013-03-16 08:52:00,
2013-03-16 00:57:00,9.2,-0.6,29.83,SE,135,0.0,0.4,64,0.00,,,0.00,WUHU216HW,2013-03-16 08:57:00,
2013-03-16 01:02:00,9.0,-0.8,29.83,SE,135,0.0,0.0,64,0.00,,,0.00,WUHU216HW,2013-03-16 09:02:00,
2013-03-16 01:07:00,8.8,-1.0,29.83,SE,135,0.0,0.4,64,0.00,,,0.00,WUHU216HW,2013-03-16 09:07:00,
2013-03-16 01:12:00,8.6,-1.2,29.83,SE,135,0.0,0.4,64,0.00,,,0.00,WUHU216HW,2013-03-16 09:12:00,
2013-03-16 01:17:00,8.3,-1.5,29.83,SE,135,0.0,0.0,64,0.00,,,0.00,WUHU216HW,2013-03-16 09:17:00,
2013-03-16 01:22:00,8.3,-1.5,29.83,SE,135,0.0,0.0,64,0.00,,,0.00,WUHU216HW,2013-03-16 09:22:00,
2013-03-16 01:27:00,8.1,-1.6,29.83,SE,135,0.0,0.9,64,0.00,,,0.00,WUHU216HW,2013-03-16 09:27:00,
2013-03-16 01:32:00,7.9,-1.8,29.83,SE,135,0.0,0.9,64,0.00,,,0.00,WUHU216HW,2013-03-16 09:32:00,
2013-03-16 01:37:00,7.7,-2.0,29.84,SE,135,0.0,0.0,64,0.00,,,0.00,WUHU216HW,2013-03-16 09:37:00,
2013-03-16 01:42:00,7.6,-1.8,29.84,SE,135,0.4,0.4,65,0.00,,,0.00,WUHU216HW,2013-03-16 09:42:00,
2013-03-16 01:47:00,7.4,-2.0,29.84,SE,135,0.9,0.9,65,0.00,,,0.00,WUHU216HW,2013-03-16 09:47:00,
2013-03-16 01:52:00,7.2,-2.1,29.84,ESE,113,1.1,1.1,65,0.00,,,0.00,WUHU216HW,2013-03-16 09:52:00,
2013-03-16 01:57:00,6.8,-2.5,29.84,ESE,113,0.0,1.1,65,0.00,,,0.00,WUHU216HW,2013-03-16 09:57:00,
2013-03-16 02:02:00,6.7,-2.7,29.84,ESE,113,0.0,0.7,65,0.00,,,0.00,WUHU216HW,2013-03-16 10:02:00,
2013-03-16 02:07:00,6.5,-2.5,29.84,ESE,113,0.0,0.0,66,0.00,,,0.00,WUHU216HW,2013-03-16 10:07:00,
2013-03-16 02:12:00,6.5,-2.5,29.85,ESE,113,0.0,0.0,66,0.00,,,0.00,WUHU216HW,2013-03-16 10:12:00,
2013-03-16 02:17:00,6.5,-2.5,29.85,ESE,113,0.4,0.4,66,0.00,,,0.00,WUHU216HW,2013-03-16 10:17:00,
2013-03-16 02:22:00,6.3,-2.7,29.85,ESE,113,0.0,0.4,66,0.00,,,0.00,WUHU216HW,2013-03-16 10:22:00,
2013-03-16 02:27:00,6.1,-2.9,29.85,ESE,113,0.4,0.4,66,0.00,,,0.00,WUHU216HW,2013-03-16 10:27:00,
2013-03-16 02:32:00,6.1,-2.9,29.85,ESE,113,0.2,0.4,66,0.00,,,0.00,WUHU216HW,2013-03-16 10:32:00,
2013-03-16 02:37:00,5.9,-3.0,29.85,ESE,113,0.0,0.4,66,0.00,,,0.00,WUHU216HW,2013-03-16 10:37:00,
2013-03-16 02:42:00,5.8,-3.0,29.85,ESE,113,0.0,0.2,67,0.00,,,0.00,WUHU216HW,2013-03-16 10:42:00,
2013-03-16 02:47:00,5.4,-3.3,29.85,ESE,113,0.0,0.4,67,0.00,,,0.00,WUHU216HW,2013-03-16 10:47:00,
2013-03-16 02:52:00,5.4,-3.3,29.86,ESE,113,0.0,0.4,67,0.00,,,0.00,WUHU216HW,2013-03-16 10:52:00,
2013-03-16 02:57:00,5.2,-3.8,29.86,ESE,113,0.0,0.0,66,0.00,,,0.00,WUHU216HW,2013-03-16 10:57:00,
2013-03-16 03:02:00,5.0,-3.9,29.86,ESE,113,0.0,0.0,66,0.00,,,0.00,WUHU216HW,2013-03-16 11:02:00,
2013-03-16 03:07:00,5.0,-3.7,29.86,ESE,113,0.0,0.0,67,0.00,,,0.00,WUHU216HW,2013-03-16 11:07:00,
2013-03-16 03:12:00,4.9,-3.9,29.86,SW,225,1.1,1.1,67,0.00,,,0.00,WUHU216HW,2013-03-16 11:12:00,
2013-03-16 03:17:00,4.7,-4.3,29.87,West,270,0.0,1.1,66,0.00,,,0.00,WUHU216HW,2013-03-16 11:17:00,
2013-03-16 03:22:00,4.3,-4.3,29.87,West,270,0.0,0.4,67,0.00,,,0.00,WUHU216HW,2013-03-16 11:22:00,
2013-03-16 03:27:00,4.1,-4.5,29.87,North,0,0.0,0.0,67,0.00,,,0.00,WUHU216HW,2013-03-16 11:27:00,
2013-03-16 03:33:00,4.0,-4.7,29.87,NE,45,0.4,1.1,67,0.00,,,0.00,WUHU216HW,2013-03-16 11:33:00,
2013-03-16 03:38:00,4.0,-4.7,29.87,NE,45,0.0,1.1,67,0.00,,,0.00,WUHU216HW,2013-03-16 11:38:00,
2013-03-16 03:43:00,4.0,-4.7,29.87,NW,315,0.0,1.1,67,0.00,,,0.00,WUHU216HW,2013-03-16 11:43:00,
2013-03-16 03:47:00,3.6,-4.9,29.87,North,0,0.4,0.4,67,0.00,,,0.00,WUHU216HW,2013-03-16 11:47:00,
2013-03-16 03:52:00,3.4,-5.1,29.87,ENE,68,0.0,0.7,67,0.00,,,0.00,WUHU216HW,2013-03-16 11:52:00,
2013-03-16 03:57:00,3.4,-4.8,29.87,East,90,0.0,0.7,68,0.00,,,0.00,WUHU216HW,2013-03-16 11:57:00,
2013-03-16 04:02:00,3.4,-5.1,29.87,East,90,0.0,0.2,67,0.00,,,0.00,WUHU216HW,2013-03-16 12:02:00,
2013-03-16 04:07:00,3.2,-4.9,29.87,North,0,0.0,0.0,68,0.00,,,0.00,WUHU216HW,2013-03-16 12:07:00,
2013-03-16 04:12:00,2.9,-5.3,29.88,North,0,0.0,0.0,68,0.00,,,0.00,WUHU216HW,2013-03-16 12:12:00,
2013-03-16 04:17:00,2.7,-5.5,29.88,North,0,0.0,0.0,68,0.00,,,0.00,WUHU216HW,2013-03-16 12:17:00,
2013-03-16 04:22:00,2.5,-5.7,29.88,North,0,0.0,0.0,68,0.00,,,0.00,WUHU216HW,2013-03-16 12:22:00,
2013-03-16 04:28:00,2.5,-5.7,29.88,ENE,68,0.2,0.4,68,0.00,,,0.00,WUHU216HW,2013-03-16 12:28:00,
2013-03-16 04:33:00,2.5,-5.7,29.88,East,90,0.0,0.4,68,0.00,,,0.00,WUHU216HW,2013-03-16 12:33:00,
2013-03-16 04:38:00,2.5,-5.7,29.88,East,90,0.0,0.4,68,0.00,,,0.00,WUHU216HW,2013-03-16 12:38:00,
2013-03-16 04:43:00,2.3,-5.8,29.89,ESE,113,0.0,0.0,68,0.00,,,0.00,WUHU216HW,2013-03-16 12:43:00,
2013-03-16 04:48:00,2.0,-6.2,29.89,ESE,113,0.0,0.0,68,0.00,,,0.00,WUHU216HW,2013-03-16 12:48:00,
2013-03-16 04:53:00,2.0,-5.9,29.88,East,90,0.0,0.7,69,0.00,,,0.00,WUHU216HW,2013-03-16 12:53:00,
2013-03-16 04:58:00,2.0,-5.9,29.88,ENE,68,1.1,1.1,69,0.00,,,0.00,WUHU216HW,2013-03-16 12:58:00,
2013-03-16 05:03:00,2.0,-5.9,29.88,East,90,0.0,1.1,69,0.00,,,0.00,WUHU216HW,2013-03-16 13:03:00,
2013-03-16 05:08:00,1.8,-6.1,29.89,ESE,113,0.4,0.9,69,0.00,,,0.00,WUHU216HW,2013-03-16 13:08:00,
2013-03-16 05:13:00,1.3,-6.7,29.89,ESE,113,0.0,0.4,69,0.00,,,0.00,WUHU216HW,2013-03-16 13:13:00,
2013-03-16 05:18:00,1.1,-6.8,29.89,ESE,113,0.0,0.4,69,0.00,,,0.00,WUHU216HW,2013-03-16 13:18:00,
2013-03-16 05:23:00,1.1,-6.8,29.89,ESE,113,0.0,0.0,69,0.00,,,0.00,WUHU216HW,2013-03-16 13:23:00,
2013-03-16 05:28:00,1.1,-6.8,29.89,ESE,113,0.0,0.0,69,0.00,,,0.00,WUHU216HW,2013-03-16 13:28:00,
2013-03-16 05:33:00,1.1,-6.8,29.89,East,90,0.7,0.7,69,0.00,,,0.00,WUHU216HW,2013-03-16 13:33:00,
2013-03-16 05:38:00,1.1,-6.5,29.89,NE,45,0.0,0.9,70,0.00,,,0.00,WUHU216HW,2013-03-16 13:38:00,
2013-03-16 05:43:00,0.9,-6.7,29.89,East,90,0.0,0.9,70,0.00,,,0.00,WUHU216HW,2013-03-16 13:43:00,
2013-03-16 05:48:00,0.7,-6.8,29.89,West,270,0.4,0.4,70,0.00,,,0.00,WUHU216HW,2013-03-16 13:48:00,
2013-03-16 05:53:00,0.4,-7.5,29.90,WNW,293,0.0,0.4,69,0.00,,,0.00,WUHU216HW,2013-03-16 13:53:00,
2013-03-16 05:58:00,0.4,-7.5,29.90,NE,45,0.2,0.9,69,0.00,,,0.00,WUHU216HW,2013-03-16 13:58:00,
2013-03-16 06:03:00,0.4,-7.5,29.90,East,90,0.0,0.9,69,0.00,,,0.00,WUHU216HW,2013-03-16 14:03:00,
2013-03-16 06:08:00,0.5,-7.0,29.90,ENE,68,0.7,1.1,70,0.00,,,0.00,WUHU216HW,2013-03-16 14:08:00,
2013-03-16 06:13:00,0.5,-7.0,29.90,NNE,23,0.0,1.1,70,0.00,,,0.00,WUHU216HW,2013-03-16 14:13:00,
2013-03-16 06:18:00,0.5,-7.0,29.90,NNE,23,0.0,0.9,70,0.00,,,0.00,WUHU216HW,2013-03-16 14:18:00,
2013-03-16 06:23:00,0.4,-7.5,29.90,NNE,23,0.0,0.0,69,0.00,,,0.00,WUHU216HW,2013-03-16 14:23:00,
2013-03-16 06:28:00,0.2,-7.6,29.91,NNE,23,0.0,0.0,69,0.00,,,0.00,WUHU216HW,2013-03-16 14:28:00,
2013-03-16 06:33:00,-0.2,-8.0,29.91,North,0,0.0,0.4,69,0.00,,,0.00,WUHU216HW,2013-03-16 14:33:00,
2013-03-16 06:38:00,-0.2,-8.0,29.91,ENE,68,0.4,0.4,69,0.00,,,0.00,WUHU216HW,2013-03-16 14:38:00,
2013-03-16 06:43:00,-0.2,-8.0,29.91,ENE,68,0.0,0.4,69,0.00,,,0.00,WUHU216HW,2013-03-16 14:43:00,
2013-03-16 06:48:00,-0.4,-8.2,29.91,NE,45,0.0,0.4,69,0.00,,,0.00,WUHU216HW,2013-03-16 14:48:00,
2013-03-16 06:53:00,-0.4,-8.2,29.92,SW,225,0.9,0.9,69,0.00,,,0.00,WUHU216HW,2013-03-16 14:53:00,
2013-03-16 06:58:00,-0.9,-8.7,29.92,SW,225,0.0,1.8,69,0.00,,,0.00,WUHU216HW,2013-03-16 14:58:00,
2013-03-16 07:03:00,-0.9,-8.7,29.92,SW,225,0.0,1.8,69,0.00,,,0.00,WUHU216HW,2013-03-16 15:03:00,
2013-03-16 07:08:00,-1.1,-8.9,29.92,SW,225,0.0,0.0,69,0.00,,,0.00,WUHU216HW,2013-03-16 15:08:00,
2013-03-16 07:14:00,-1.1,-8.9,29.92,WSW,248,0.0,0.0,69,0.00,,,0.00,WUHU216HW,2013-03-16 15:14:00,
2013-03-16 07:19:00,-1.1,-8.5,29.92,SW,225,0.0,0.0,70,0.00,,,0.00,WUHU216HW,2013-03-16 15:19:00,
2013-03-16 07:24:00,-1.1,-8.5,29.92,SE,135,0.2,0.4,70,0.00,,,0.00,WUHU216HW,2013-03-16 15:24:00,
2013-03-16 07:29:00,-1.1,-8.3,29.93,NW,315,0.0,2.2,71,0.00,,,0.00,WUHU216HW,2013-03-16 15:29:00,
2013-03-16 07:34:00,-1.3,-8.5,29.93,NNW,338,0.0,2.2,71,0.00,,,0.00,WUHU216HW,2013-03-16 15:34:00,
2013-03-16 07:39:00,-1.4,-8.9,29.93,NE,45,0.4,1.3,70,0.00,,,0.00,WUHU216HW,2013-03-16 15:39:00,
2013-03-16 07:44:00,-1.4,-8.6,29.93,East,90,0.2,1.3,71,0.00,,,0.00,WUHU216HW,2013-03-16 15:44:00,
2013-03-16 07:49:00,-1.4,-8.9,29.93,East,90,0.0,1.1,70,0.00,,,0.00,WUHU216HW,2013-03-16 15:49:00,
2013-03-16 07:53:00,-1.8,-9.2,29.93,East,90,0.0,0.0,70,0.00,,,0.00,WUHU216HW,2013-03-16 15:53:00,
2013-03-16 07:58:00,-2.0,-9.3,29.93,North,0,0.0,0.0,70,0.00,,,0.00,WUHU216HW,2013-03-16 15:58:00,
2013-03-16 08:03:00,-2.0,-9.1,29.94,NNE,23,0.0,0.0,71,0.00,,,0.00,WUHU216HW,2013-03-16 16:03:00,
2013-03-16 08:08:00,-2.0,-9.1,29.94,NNW,338,0.0,0.0,71,0.00,,,0.00,WUHU216HW,2013-03-16 16:08:00,
2013-03-16 08:14:00,-2.0,-9.3,29.94,NNW,338,0.0,0.4,70,0.00,,,0.00,WUHU216HW,2013-03-16 16:14:00,
2013-03-16 08:19:00,-2.0,-9.1,29.94,NNW,338,0.0,0.4,71,0.00,,,0.00,WUHU216HW,2013-03-16 16:19:00,
2013-03-16 08:24:00,-2.2,-9.3,29.94,North,0,0.0,0.0,71,0.00,,,0.00,WUHU216HW,2013-03-16 16:24:00,
2013-03-16 08:29:00,-2.2,-9.3,29.94,NE,45,0.4,0.4,71,0.00,,,0.00,WUHU216HW,2013-03-16 16:29:00,
2013-03-16 08:34:00,-2.0,-9.1,29.94,NE,45,0.2,0.7,71,0.00,,,0.00,WUHU216HW,2013-03-16 16:34:00,
2013-03-16 08:39:00,-2.0,-9.1,29.94,ENE,68,1.1,1.1,71,0.00,,,0.00,WUHU216HW,2013-03-16 16:39:00,
2013-03-16 08:44:00,-2.0,-9.1,29.94,East,90,0.0,1.1,71,0.00,,,0.00,WUHU216HW,2013-03-16 16:44:00,
2013-03-16 08:49:00,-1.8,-8.9,29.94,East,90,0.0,0.2,71,0.00,,,0.00,WUHU216HW,2013-03-16 16:49:00,
2013-03-16 08:54:00,-1.8,-8.9,29.95,East,90,0.0,0.0,71,0.00,,,0.00,WUHU216HW,2013-03-16 16:54:00,
2013-03-16 08:59:00,-2.2,-9.3,29.95,ESE,113,0.0,0.7,71,0.00,,,0.00,WUHU216HW,2013-03-16 16:59:00,
2013-03-16 09:04:00,-2.0,-9.1,29.95,ESE,113,0.0,0.7,71,0.00,,,0.00,WUHU216HW,2013-03-16 17:04:00,
2013-03-16 09:09:00,-1.6,-8.4,29.95,ESE,113,0.0,0.0,72,0.00,,,0.00,WUHU216HW,2013-03-16 17:09:00,
2013-03-16 09:14:00,-1.1,-8.0,29.95,ESE,113,0.4,0.4,72,0.00,,,0.00,WUHU216HW,2013-03-16 17:14:00,
2013-03-16 09:19:00,-1.1,-8.0,29.96,ESE,113,0.0,0.4,72,0.00,,,0.00,WUHU216HW,2013-03-16 17:19:00,
2013-03-16 09:24:00,-0.4,-7.4,29.96,ESE,113,0.2,0.4,72,0.00,,,0.00,WUHU216HW,2013-03-16 17:24:00,
2013-03-16 09:29:00,0.0,-6.4,29.96,ESE,113,0.0,0.4,74,0.00,,,0.00,WUHU216HW,2013-03-16 17:29:00,
2013-03-16 09:34:00,0.4,-6.1,29.96,NNW,338,0.4,0.4,74,0.00,,,0.00,WUHU216HW,2013-03-16 17:34:00,
2013-03-16 09:39:00,0.9,-5.6,29.96,NNW,338,0.0,0.4,74,0.00,,,0.00,WUHU216HW,2013-03-16 17:39:00,
2013-03-16 09:44:00,1.3,-5.2,29.97,WNW,293,0.0,0.4,74,0.00,,,0.00,WUHU216HW,2013-03-16 17:44:00,
2013-03-16 09:49:00,1.8,-4.4,29.97,WSW,248,0.7,0.7,75,0.00,,,0.00,WUHU216HW,2013-03-16 17:49:00,
2013-03-16 09:54:00,2.2,-4.3,29.97,WSW,248,0.0,0.7,74,0.00,,,0.00,WUHU216HW,2013-03-16 17:54:00,
2013-03-16 09:59:00,2.5,-3.4,29.98,SW,225,0.0,0.4,76,0.00,,,0.00,WUHU216HW,2013-03-16 17:59:00,
2013-03-16 10:04:00,3.2,-2.7,29.98,WSW,248,0.0,0.4,76,0.00,,,0.00,WUHU216HW,2013-03-16 18:04:00,
2013-03-16 10:09:00,3.8,-2.4,29.97,NNW,338,0.0,0.2,75,0.00,,,0.00,WUHU216HW,2013-03-16 18:09:00,
2013-03-16 10:14:00,4.7,-1.6,29.97,NNW,338,0.0,0.2,75,0.00,,,0.00,WUHU216HW,2013-03-16 18:14:00,
2013-03-16 10:19:00,5.2,-1.1,29.97,NNW,338,0.0,0.0,75,0.00,,,0.00,WUHU216HW,2013-03-16 18:19:00,
2013-03-16 10:24:00,5.9,-0.4,29.97,WNW,293,0.0,0.0,75,0.00,,,0.00,WUHU216HW,2013-03-16 18:24:00,
2013-03-16 10:29:00,6.3,0.0,29.98,West,270,0.0,0.0,75,0.00,,,0.00,WUHU216HW,2013-03-16 18:29:00,
2013-03-16 10:34:00,6.7,0.4,29.98,WSW,248,0.0,0.0,75,0.00,,,0.00,WUHU216HW,2013-03-16 18:34:00,
2013-03-16 10:39:00,7.4,1.1,29.98,ESE,113,0.4,1.1,75,0.00,,,0.00,WUHU216HW,2013-03-16 18:39:00,
2013-03-16 10:44:00,8.3,2.0,29.98,NE,45,0.0,1.1,75,0.00,,,0.00,WUHU216HW,2013-03-16 18:44:00,
2013-03-16 10:49:00,9.7,3.3,29.98,NNE,23,4.3,4.3,75,0.00,,,0.00,WUHU216HW,2013-03-16 18:49:00,
2013-03-16 10:54:00,11.0,4.2,29.98,NNE,23,4.5,4.5,74,0.00,,,0.00,WUHU216HW,2013-03-16 18:54:00,
2013-03-16 10:59:00,12.1,5.1,29.98,NNE,23,1.8,4.5,73,0.00,,,0.00,WUHU216HW,2013-03-16 18:59:00,
2013-03-16 11:04:00,13.1,6.4,29.98,NE,45,5.8,5.8,74,0.00,,,0.00,WUHU216HW,2013-03-16 19:04:00,
2013-03-16 11:09:00,14.0,7.0,29.98,NE,45,1.8,5.8,73,0.00,,,0.00,WUHU216HW,2013-03-16 19:09:00,
2013-03-16 11:14:00,14.8,7.4,29.98,North,0,4.3,4.5,72,0.00,,,0.00,WUHU216HW,2013-03-16 19:14:00,
2013-03-16 11:19:00,15.3,7.6,29.98,NE,45,7.2,7.2,71,0.00,,,0.00,WUHU216HW,2013-03-16 19:19:00,
2013-03-16 11:24:00,16.0,8.2,29.98,NNE,23,3.1,7.2,71,0.00,,,0.00,WUHU216HW,2013-03-16 19:24:00,
2013-03-16 11:29:00,16.7,8.6,29.98,North,0,5.4,5.4,70,0.00,,,0.00,WUHU216HW,2013-03-16 19:29:00,
2013-03-16 11:34:00,17.3,8.8,29.98,NE,45,4.3,5.4,69,0.00,,,0.00,WUHU216HW,2013-03-16 19:34:00,
2013-03-16 11:39:00,17.8,9.4,29.98,ENE,68,6.9,6.9,69,0.00,,,0.00,WUHU216HW,2013-03-16 19:39:00,
2013-03-16 11:44:00,18.4,9.8,29.98,NE,45,4.9,6.9,69,0.00,,,0.00,WUHU216HW,2013-03-16 19:44:00,
2013-03-16 11:49:00,18.7,9.8,29.98,North,0,0.0,6.9,68,0.00,,,0.00,WUHU216HW,2013-03-16 19:49:00,
2013-03-16 11:54:00,19.4,10.2,29.99,NE,45,4.9,6.3,67,0.00,,,0.00,WUHU216HW,2013-03-16 19:54:00,
2013-03-16 11:59:00,19.8,10.2,29.98,East,90,4.5,6.3,66,0.00,,,0.00,WUHU216HW,2013-03-16 19:59:00,
2013-03-16 12:04:00,20.5,10.5,29.99,NNE,23,4.0,4.9,65,0.00,,,0.00,WUHU216HW,2013-03-16 20:04:00,
2013-03-16 12:09:00,21.1,11.1,29.99,NE,45,7.4,7.4,65,0.00,,,0.00,WUHU216HW,2013-03-16 20:09:00,
2013-03-16 12:14:00,21.4,10.7,29.99,North,0,3.4,7.4,63,0.00,,,0.00,WUHU216HW,2013-03-16 20:14:00,
2013-03-16 12:19:00,21.8,11.4,29.99,NE,45,5.1,7.4,64,0.00,,,0.00,WUHU216HW,2013-03-16 20:19:00,
2013-03-16 12:24:00,22.0,11.3,29.99,North,0,0.0,6.0,63,0.00,,,0.00,WUHU216HW,2013-03-16 20:24:00,
2013-03-16 12:29:00,22.5,11.7,29.99,North,0,0.0,5.1,63,0.00,,,0.00,WUHU216HW,2013-03-16 20:29:00,
2013-03-16 12:34:00,23.0,11.9,29.99,North,0,0.0,0.0,62,0.00,,,0.00,WUHU216HW,2013-03-16 20:34:00,
2013-03-16 12:39:00,23.6,12.1,30.00,North,0,0.0,0.0,61,0.00,,,0.00,WUHU216HW,2013-03-16 20:39:00,
2013-03-16 12:44:00,23.9,12.1,29.99,North,0,0.0,0.0,60,0.00,,,0.00,WUHU216HW,2013-03-16 20:44:00,
2013-03-16 12:49:00,24.3,12.0,29.99,North,0,0.0,0.0,59,0.00,,,0.00,WUHU216HW,2013-03-16 20:49:00,
2013-03-16 12:54:00,24.5,11.3,30.00,North,0,0.0,0.0,57,0.00,,,0.00,WUHU216HW,2013-03-16 20:54:00,
2013-03-16 12:59:00,24.8,12.5,30.00,North,0,0.0,0.0,59,0.00,,,0.00,WUHU216HW,2013-03-16 20:59:00,
2013-03-16 13:04:00,25.2,12.1,30.00,North,0,0.0,0.0,57,0.00,,,0.00,WUHU216HW,2013-03-16 21:04:00,
2013-03-16 13:09:00,25.0,11.1,30.00,North,0,0.0,0.0,55,0.00,,,0.00,WUHU216HW,2013-03-16 21:09:00,
2013-03-16 13:14:00,25.6,12.3,30.00,North,0,0.0,0.0,57,0.00,,,0.00,WUHU216HW,2013-03-16 21:14:00,
2013-03-16 13:19:00,26.3,13.1,30.00,North,0,0.0,0.0,57,0.00,,,0.00,WUHU216HW,2013-03-16 21:19:00,
2013-03-16 13:24:00,26.5,11.5,30.00,North,0,0.0,0.0,53,0.00,,,0.00,WUHU216HW,2013-03-16 21:24:00,
2013-03-16 13:29:00,26.8,13.2,30.00,North,0,0.0,0.0,56,0.00,,,0.00,WUHU216HW,2013-03-16 21:29:00,
2013-03-16 13:34:00,27.5,14.2,30.00,North,0,0.0,0.0,57,0.00,,,0.00,WUHU216HW,2013-03-16 21:34:00,
2013-03-16 13:39:00,27.4,12.4,30.00,North,0,0.0,0.0,53,0.00,,,0.00,WUHU216HW,2013-03-16 21:39:00,
2013-03-16 13:44:00,28.1,14.0,30.00,North,0,0.0,0.0,55,0.00,,,0.00,WUHU216HW,2013-03-16 21:44:00,
2013-03-16 13:49:00,28.4,13.1,30.00,North,0,0.0,0.0,52,0.00,,,0.00,WUHU216HW,2013-03-16 21:49:00,
2013-03-16 13:54:00,29.0,14.4,30.00,North,0,0.0,0.0,54,0.00,,,0.00,WUHU216HW,2013-03-16 21:54:00,
2013-03-16 13:59:00,29.2,13.7,30.00,North,0,0.0,0.0,52,0.00,,,0.00,WUHU216HW,2013-03-16 21:59:00,
2013-03-16 14:04:00,29.5,14.0,30.00,North,0,0.0,0.0,52,0.00,,,0.00,WUHU216HW,2013-03-16 22:04:00,
2013-03-16 14:09:00,29.5,14.0,30.00,North,0,0.0,0.0,52,0.00,,,0.00,WUHU216HW,2013-03-16 22:09:00,
2013-03-16 14:14:00,30.1,14.5,30.00,North,0,0.0,0.0,52,0.00,,,0.00,WUHU216HW,2013-03-16 22:14:00,
2013-03-16 14:19:00,30.8,15.6,30.00,North,0,0.0,0.0,53,0.00,,,0.00,WUHU216HW,2013-03-16 22:19:00,
2013-03-16 14:24:00,31.0,15.4,30.00,North,0,0.0,0.0,52,0.00,,,0.00,WUHU216HW,2013-03-16 22:24:00,
2013-03-16 14:29:00,31.1,15.5,30.00,North,0,0.0,0.0,52,0.00,,,0.00,WUHU216HW,2013-03-16 22:29:00,
2013-03-16 14:34:00,31.1,14.1,30.00,North,0,0.0,0.0,49,0.00,,,0.00,WUHU216HW,2013-03-16 22:34:00,
2013-03-16 14:39:00,31.3,15.3,30.00,North,0,0.0,0.0,51,0.00,,,0.00,WUHU216HW,2013-03-16 22:39:00,
2013-03-16 14:44:00,32.0,15.9,30.00,North,0,0.0,0.0,51,0.00,,,0.00,WUHU216HW,2013-03-16 22:44:00,
2013-03-16 14:49:00,32.0,15.9,30.00,North,0,0.0,0.0,51,0.00,,,0.00,WUHU216HW,2013-03-16 22:49:00,
2013-03-16 14:54:00,32.6,16.4,30.00,North,0,0.0,0.0,51,0.00,,,0.00,WUHU216HW,2013-03-16 22:54:00,
2013-03-16 14:59:00,33.5,17.2,30.00,North,0,0.0,0.0,51,0.00,,,0.00,WUHU216HW,2013-03-16 22:59:00,
2013-03-16 15:04:00,33.7,16.9,30.00,North,0,0.0,0.0,50,0.00,,,0.00,WUHU216HW,2013-03-16 23:04:00,
2013-03-16 15:09:00,33.3,14.1,30.00,North,0,0.0,0.0,45,0.00,,,0.00,WUHU216HW,2013-03-16 23:09:00,
2013-03-16 15:14:00,33.3,15.6,30.00,North,0,0.0,0.0,48,0.00,,,0.00,WUHU216HW,2013-03-16 23:14:00,
2013-03-16 15:19:00,33.7,15.9,30.00,North,0,0.0,0.0,48,0.00,,,0.00,WUHU216HW,2013-03-16 23:19:00,
2013-03-16 15:24:00,34.2,16.5,30.00,North,0,0.0,0.0,48,0.00,,,0.00,WUHU216HW,2013-03-16 23:24:00,
2013-03-16 15:29:00,34.9,15.6,30.00,North,0,0.0,0.0,45,0.00,,,0.00,WUHU216HW,2013-03-16 23:29:00,
2013-03-16 15:34:00,35.1,16.3,30.00,North,0,0.0,0.0,46,0.00,,,0.00,WUHU216HW,2013-03-16 23:34:00,
2013-03-16 15:39:00,34.9,15.1,30.00,North,0,0.0,0.0,44,0.00,,,0.00,WUHU216HW,2013-03-16 23:39:00,
2013-03-16 15:44:00,35.5,15.6,30.00,North,0,0.0,0.0,44,0.00,,,0.00,WUHU216HW,2013-03-16 23:44:00,
2013-03-16 15:49:00,34.7,13.4,30.00,North,0,0.0,0.0,41,0.00,,,0.00,WUHU216HW,2013-03-16 23:49:00,
2013-03-16 15:54:00,34.7,13.9,30.00,North,0,0.0,0.0,42,0.00,,,0.00,WUHU216HW,2013-03-16 23:54:00,
2013-03-16 15:59:00,35.6,16.3,30.00,North,0,0.0,0.0,45,0.00,,,0.00,WUHU216HW,2013-03-16 23:59:00,
2013-03-16 16:04:00,36.0,16.7,30.00,North,0,0.0,0.0,45,0.00,,,0.00,WUHU216HW,2013-03-17 00:04:00,
2013-03-16 16:09:00,36.0,15.6,30.00,North,0,0.0,0.0,43,0.00,,,0.00,WUHU216HW,2013-03-17 00:09:00,
2013-03-16 16:14:00,35.8,14.4,30.00,North,0,0.0,0.0,41,0.00,,,0.00,WUHU216HW,2013-03-17 00:14:00,
2013-03-16 16:19:00,35.5,14.1,30.00,North,0,0.0,0.0,41,0.00,,,0.00,WUHU216HW,2013-03-17 00:19:00,
2013-03-16 16:24:00,36.4,13.1,30.00,North,0,0.0,0.0,38,0.00,,,0.00,WUHU216HW,2013-03-17 00:24:00,
2013-03-16 16:29:00,36.4,13.7,30.00,North,0,0.0,0.0,39,0.00,,,0.00,WUHU216HW,2013-03-17 00:29:00,
2013-03-16 16:34:00,39.1,18.4,30.00,North,0,0.0,0.0,43,0.00,,,0.00,WUHU216HW,2013-03-17 00:34:00,
2013-03-16 16:39:00,42.7,18.6,30.00,North,0,0.0,0.0,38,0.00,,,0.00,WUHU216HW,2013-03-17 00:39:00,
2013-03-16 16:44:00,41.6,11.6,30.00,North,0,0.0,0.0,29,0.00,,,0.00,WUHU216HW,2013-03-17 00:44:00,
2013-03-16 16:49:00,41.8,12.6,30.00,North,0,0.0,0.0,30,0.00,,,0.00,WUHU216HW,2013-03-17 00:49:00,
2013-03-16 16:54:00,40.5,11.6,30.00,North,0,0.0,0.0,30,0.00,,,0.00,WUHU216HW,2013-03-17 00:54:00,
2013-03-16 16:59:00,40.1,15.1,30.00,North,0,0.0,0.0,36,0.00,,,0.00,WUHU216HW,2013-03-17 00:59:00,
2013-03-16 17:04:00,41.0,16.6,30.00,North,0,0.0,0.0,37,0.00,,,0.00,WUHU216HW,2013-03-17 01:04:00,
2013-03-16 17:09:00,43.0,19.0,30.00,North,0,0.0,0.0,38,0.00,,,0.00,WUHU216HW,2013-03-17 01:09:00,
2013-03-16 17:14:00,44.8,18.6,30.00,North,0,0.0,0.0,35,0.00,,,0.00,WUHU216HW,2013-03-17 01:14:00,
2013-03-16 17:19:00,45.0,17.5,30.00,North,0,0.0,0.0,33,0.00,,,0.00,WUHU216HW,2013-03-17 01:19:00,
2013-03-16 17:24:00,42.8,11.7,30.01,NNW,338,2.7,2.7,28,0.00,,,0.00,WUHU216HW,2013-03-17 01:24:00,
2013-03-16 17:29:00,42.5,13.9,30.01,North,0,0.0,2.7,31,0.00,,,0.00,WUHU216HW,2013-03-17 01:29:00,
2013-03-16 17:34:00,42.5,13.9,30.01,North,0,3.4,5.4,31,0.00,,,0.00,WUHU216HW,2013-03-17 01:34:00,
2013-03-16 17:39:00,39.6,12.1,30.01,NNE,23,5.8,5.8,32,0.00,,,0.00,WUHU216HW,2013-03-17 01:39:00,
2013-03-16 17:44:00,37.6,10.3,30.01,North,0,4.0,5.8,32,0.00,,,0.00,WUHU216HW,2013-03-17 01:44:00,
2013-03-16 17:49:00,35.5,7.8,30.01,North,0,5.1,6.9,31,0.00,,,0.00,WUHU216HW,2013-03-17 01:49:00,
2013-03-16 17:54:00,34.4,8.1,30.01,North,0,2.2,6.9,33,0.00,,,0.00,WUHU216HW,2013-03-17 01:54:00,
2013-03-16 17:59:00,34.0,9.1,30.01,North,0,3.1,6.5,35,0.00,,,0.00,WUHU216HW,2013-03-17 01:59:00,
2013-03-16 18:04:00,34.0,9.7,30.01,NNW,338,2.2,6.5,36,0.00,,,0.00,WUHU216HW,2013-03-17 02:04:00,
2013-03-16 18:09:00,33.5,8.6,30.01,North,0,2.9,5.6,35,0.00,,,0.00,WUHU216HW,2013-03-17 02:09:00,
2013-03-16 18:14:00,33.8,9.5,30.01,North,0,2.2,4.7,36,0.00,,,0.00,WUHU216HW,2013-03-17 02:14:00,
2013-03-16 18:19:00,33.8,10.2,30.02,North,0,2.2,3.4,37,0.00,,,0.00,WUHU216HW,2013-03-17 02:19:00,
2013-03-16 18:24:00,33.5,9.8,30.02,NNE,23,3.1,4.3,37,0.00,,,0.00,WUHU216HW,2013-03-17 02:24:00,
2013-03-16 18:29:00,32.8,9.2,30.02,North,0,1.3,4.9,37,0.00,,,0.00,WUHU216HW,2013-03-17 02:29:00,
2013-03-16 18:34:00,32.2,8.7,30.02,North,0,4.7,4.9,37,0.00,,,0.00,WUHU216HW,2013-03-17 02:34:00,
2013-03-16 18:39:00,31.7,8.2,30.02,NNW,338,3.8,4.7,37,0.00,,,0.00,WUHU216HW,2013-03-17 02:39:00,
2013-03-16 18:44:00,31.5,8.1,30.02,North,0,2.0,4.5,37,0.00,,,0.00,WUHU216HW,2013-03-17 02:44:00,
2013-03-16 18:49:00,31.3,7.9,30.02,North,0,2.5,4.5,37,0.00,,,0.00,WUHU216HW,2013-03-17 02:49:00,
2013-03-16 18:54:00,31.3,8.6,30.02,North,0,3.6,4.0,38,0.00,,,0.00,WUHU216HW,2013-03-17 02:54:00,
2013-03-16 18:59:00,31.0,7.6,30.02,North,0,2.2,6.3,37,0.00,,,0.00,WUHU216HW,2013-03-17 02:59:00,
2013-03-16 19:04:00,31.1,8.4,30.03,NNW,338,2.5,6.3,38,0.00,,,0.00,WUHU216HW,2013-03-17 03:04:00,
2013-03-16 19:09:00,31.3,8.6,30.03,North,0,5.6,5.6,38,0.00,,,0.00,WUHU216HW,2013-03-17 03:09:00,
2013-03-16 19:14:00,32.0,9.2,30.03,NNW,338,2.5,5.6,38,0.00,,,0.00,WUHU216HW,2013-03-17 03:14:00,
2013-03-16 19:19:00,31.5,8.7,30.03,North,0,0.0,2.5,38,0.00,,,0.00,WUHU216HW,2013-03-17 03:19:00,
2013-03-16 19:24:00,31.0,8.2,30.03,North,0,0.0,2.5,38,0.00,,,0.00,WUHU216HW,2013-03-17 03:24:00,
2013-03-16 19:29:00,31.0,8.2,30.03,North,0,0.0,0.0,38,0.00,,,0.00,WUHU216HW,2013-03-17 03:29:00,
2013-03-16 19:34:00,30.6,8.6,30.03,North,0,0.0,0.0,39,0.00,,,0.00,WUHU216HW,2013-03-17 03:34:00,
2013-03-16 19:39:00,29.5,7.6,30.03,North,0,0.0,0.0,39,0.00,,,0.00,WUHU216HW,2013-03-17 03:39:00,
2013-03-16 19:44:00,29.0,7.7,30.03,North,0,0.0,0.0,40,0.00,,,0.00,WUHU216HW,2013-03-17 03:44:00,
2013-03-16 19:49:00,28.4,7.2,30.03,North,0,0.0,0.0,40,0.00,,,0.00,WUHU216HW,2013-03-17 03:49:00,
2013-03-16 19:54:00,27.9,7.2,30.03,North,0,0.0,0.0,41,0.00,,,0.00,WUHU216HW,2013-03-17 03:54:00,
2013-03-16 19:59:00,27.5,7.4,30.03,North,0,0.0,0.0,42,0.00,,,0.00,WUHU216HW,2013-03-17 03:59:00,
2013-03-16 20:00:00,27.5,7.4,30.03,North,0,0.0,0.0,42,0.00,,,0.00,WUHU216HW,2013-03-17 04:00:00,
2013-03-16 20:05:00,27.0,6.8,30.03,North,0,0.0,0.0,42,0.00,,,0.00,WUHU216HW,2013-03-17 04:05:00,
2013-03-16 20:10:00,26.6,7.0,30.04,North,0,0.0,0.0,43,0.00,,,0.00,WUHU216HW,2013-03-17 04:10:00,
2013-03-16 20:15:00,26.3,6.8,30.04,North,0,0.0,0.0,43,0.00,,,0.00,WUHU216HW,2013-03-17 04:15:00,
2013-03-16 20:20:00,25.9,6.8,30.04,North,0,0.0,0.0,44,0.00,,,0.00,WUHU216HW,2013-03-17 04:20:00,
2013-03-16 20:25:00,25.6,7.0,30.04,North,0,0.0,0.0,45,0.00,,,0.00,WUHU216HW,2013-03-17 04:25:00,
2013-03-16 20:30:00,25.2,6.8,30.04,North,0,0.0,0.0,45,0.00,,,0.00,WUHU216HW,2013-03-17 04:30:00,
2013-03-16 20:35:00,24.8,6.4,30.04,North,0,0.0,0.0,45,0.00,,,0.00,WUHU216HW,2013-03-17 04:35:00,
2013-03-16 20:40:00,24.5,6.6,30.04,North,0,0.0,0.0,46,0.00,,,0.00,WUHU216HW,2013-03-17 04:40:00,
2013-03-16 20:45:00,24.1,5.8,30.04,North,0,0.0,0.0,45,0.00,,,0.00,WUHU216HW,2013-03-17 04:45:00,
2013-03-16 20:50:00,24.1,5.8,30.05,North,0,0.0,0.0,45,0.00,,,0.00,WUHU216HW,2013-03-17 04:50:00,
2013-03-16 20:55:00,23.8,6.0,30.05,North,0,0.0,0.0,46,0.00,,,0.00,WUHU216HW,2013-03-17 04:55:00,
2013-03-16 21:00:00,23.2,5.4,30.05,North,0,0.0,0.0,46,0.00,,,0.00,WUHU216HW,2013-03-17 05:00:00,
2013-03-16 21:05:00,23.0,5.2,30.05,North,0,0.0,0.0,46,0.00,,,0.00,WUHU216HW,2013-03-17 05:05:00,
2013-03-16 21:10:00,22.7,5.4,30.05,North,0,0.0,0.0,47,0.00,,,0.00,WUHU216HW,2013-03-17 05:10:00,
2013-03-16 21:15:00,22.1,4.9,30.05,North,0,0.0,0.0,47,0.00,,,0.00,WUHU216HW,2013-03-17 05:15:00,
2013-03-16 21:20:00,21.6,4.9,30.05,North,0,0.0,0.0,48,0.00,,,0.00,WUHU216HW,2013-03-17 05:20:00,
2013-03-16 21:25:00,21.2,5.0,30.05,North,0,0.0,0.0,49,0.00,,,0.00,WUHU216HW,2013-03-17 05:25:00,
2013-03-16 21:30:00,20.9,4.6,30.05,North,0,0.0,0.0,49,0.00,,,0.00,WUHU216HW,2013-03-17 05:30:00,
2013-03-16 21:35:00,20.5,4.8,30.05,North,0,0.0,0.0,50,0.00,,,0.00,WUHU216HW,2013-03-17 05:35:00,
2013-03-16 21:40:00,20.3,4.6,30.06,North,0,0.0,0.0,50,0.00,,,0.00,WUHU216HW,2013-03-17 05:40:00,
2013-03-16 21:45:00,20.0,4.7,30.06,North,0,0.0,0.0,51,0.00,,,0.00,WUHU216HW,2013-03-17 05:45:00,
2013-03-16 21:50:00,19.6,4.3,30.06,NE,45,0.2,0.2,51,0.00,,,0.00,WUHU216HW,2013-03-17 05:50:00,
2013-03-16 21:55:00,19.3,4.4,30.06,NE,45,0.0,0.2,52,0.00,,,0.00,WUHU216HW,2013-03-17 05:55:00,
2013-03-16 22:00:00,19.1,3.9,30.06,NNE,23,0.0,0.9,51,0.00,,,0.00,WUHU216HW,2013-03-17 06:00:00,
2013-03-16 22:05:00,18.5,3.8,30.06,NNE,23,0.0,0.9,52,0.00,,,0.00,WUHU216HW,2013-03-17 06:05:00,
2013-03-16 22:10:00,18.4,4.0,30.06,NNE,23,0.0,0.0,53,0.00,,,0.00,WUHU216HW,2013-03-17 06:10:00,
2013-03-16 22:15:00,17.8,3.5,30.06,NNE,23,0.0,0.0,53,0.00,,,0.00,WUHU216HW,2013-03-17 06:15:00,
2013-03-16 22:20:00,17.6,3.8,30.06,NE,45,0.0,0.0,54,0.00,,,0.00,WUHU216HW,2013-03-17 06:20:00,
2013-03-16 22:25:00,17.3,3.4,30.06,NE,45,0.2,0.2,54,0.00,,,0.00,WUHU216HW,2013-03-17 06:25:00,
2013-03-16 22:30:00,16.9,3.4,30.07,NE,45,0.0,0.7,55,0.00,,,0.00,WUHU216HW,2013-03-17 06:30:00,
2013-03-16 22:35:00,16.7,3.3,30.06,NE,45,0.0,0.7,55,0.00,,,0.00,WUHU216HW,2013-03-17 06:35:00,
2013-03-16 22:40:00,16.4,3.3,30.07,NE,45,0.0,0.0,56,0.00,,,0.00,WUHU216HW,2013-03-17 06:40:00,
2013-03-16 22:45:00,16.2,3.2,30.07,NE,45,0.0,0.0,56,0.00,,,0.00,WUHU216HW,2013-03-17 06:45:00,
2013-03-16 22:50:00,16.0,3.3,30.07,NE,45,0.0,0.0,57,0.00,,,0.00,WUHU216HW,2013-03-17 06:50:00,
2013-03-16 22:55:00,15.7,3.1,30.07,NE,45,0.0,0.0,57,0.00,,,0.00,WUHU216HW,2013-03-17 06:55:00,
2013-03-16 23:00:00,15.5,3.3,30.07,NE,45,0.2,0.4,58,0.00,,,0.00,WUHU216HW,2013-03-17 07:00:00,
2013-03-16 23:05:00,15.1,2.9,30.07,NE,45,0.0,0.7,58,0.00,,,0.00,WUHU216HW,2013-03-17 07:05:00,
2013-03-16 23:10:00,14.9,2.7,30.07,NE,45,0.0,0.7,58,0.00,,,0.00,WUHU216HW,2013-03-17 07:10:00,
2013-03-16 23:15:00,14.8,2.6,30.08,NE,45,0.4,0.4,58,0.00,,,0.00,WUHU216HW,2013-03-17 07:15:00,
2013-03-16 23:20:00,14.4,2.3,30.08,NE,45,0.0,0.4,58,0.00,,,0.00,WUHU216HW,2013-03-17 07:20:00,
2013-03-16 23:25:00,14.2,2.1,30.08,NE,45,0.0,0.4,58,0.00,,,0.00,WUHU216HW,2013-03-17 07:25:00,
2013-03-16 23:30:00,14.0,2.4,30.08,NE,45,0.0,0.0,59,0.00,,,0.00,WUHU216HW,2013-03-17 07:30:00,
2013-03-16 23:35:00,13.7,2.0,30.08,NE,45,0.0,0.4,59,0.00,,,0.00,WUHU216HW,2013-03-17 07:35:00,
2013-03-16 23:40:00,13.3,1.6,30.08,NE,45,0.0,0.4,59,0.00,,,0.00,WUHU216HW,2013-03-17 07:40:00,
2013-03-16 23:45:00,13.1,1.8,30.08,NE,45,0.0,0.0,60,0.00,,,0.00,WUHU216HW,2013-03-17 07:45:00,
2013-03-16 23:50:00,13.0,1.6,30.08,NE,45,0.0,0.0,60,0.00,,,0.00,WUHU216HW,2013-03-17 07:50:00,
2013-03-16 23:55:00,13.0,1.6,30.09,NE,45,0.0,0.0,60,0.00,,,0.00,WUHU216HW,2013-03-17 07:55:00,